GW3529 Weather Reports


Display with metric or nautical units.
time (UTC)temp
F
wind
direction
speed
MPH
gust
MPH
rain 1hr
in
rain 24hr
in
rain mn
in
humidity
%
barometer
mb
20260902043037 62 163 0.0 0.0 0.00 0.00 0.00 80 1009.0
20260902041541 62 163 0.0 0.0 0.00 0.00 0.00 81 1009.1
20260902040037 62 157 0.0 0.0 0.00 0.00 0.00 79 1009.2
20260902034534 62 157 0.0 5.0 0.00 0.00 0.00 81 1009.2
20260902033034 62 157 0.0 0.0 0.00 0.00 0.00 80 1009.2
20260902031534 63 156 0.0 0.0 0.00 0.00 0.00 79 1009.2
20260902030032 63 155 0.0 0.0 0.00 0.00 0.00 79 1009.1
20260902024532 64 76 0.0 0.0 0.00 0.00 0.00 78 1009.1
20260902023035 64 48 0.0 0.0 0.00 0.00 0.00 78 1009.0
20260902021530 64 48 0.0 0.0 0.00 0.00 0.00 78 1008.9
20260902020028 66 40 0.0 0.0 0.00 0.00 0.00 73 1008.7
20260902014538 67 40 0.0 0.0 0.00 0.00 0.00 70 1008.7
20260902013030 69 40 0.0 0.0 0.00 0.00 0.00 68 1008.6
20260902011527 69 40 0.0 5.0 0.00 0.00 0.00 67 1008.6
20260902010050 71 28 0.0 2.0 0.00 0.00 0.00 65 1008.5
20260902004524 71 17 0.0 0.0 0.00 0.00 0.00 64 1008.5
20260902003022 72 17 0.0 0.0 0.00 0.00 0.00 63 1008.7
20260902001524 72 5 0.0 1.0 0.00 0.00 0.00 62 1008.6
20260902000034 71 18 0.0 1.0 0.00 0.00 0.00 62 1008.6
20260901234520 71 19 0.0 0.0 0.00 0.00 0.00 61 1008.7
20260901233019 71 360 0.0 4.0 0.00 0.00 0.00 60 1008.6
20260901231517 72 347 0.0 0.0 0.00 0.00 0.00 57 1008.8
20260901230026 72 346 0.0 1.0 0.00 0.00 0.00 57 1008.6
20260901224513 72 148 0.0 0.0 0.00 0.00 0.00 58 1008.8
20260901223032 72 97 0.0 7.0 0.00 0.00 0.00 58 1008.9
20260901221512 73 355 0.0 12.0 0.00 0.00 0.00 59 1008.9
20260901220008 73 26 0.0 7.0 0.00 0.00 0.00 61 1008.9
20260901214506 73 63 0.0 12.0 0.00 0.00 0.00 61 1008.9
20260901213005 74 133 0.0 9.0 0.00 0.00 0.00 59 1008.9
20260901211510 73 24 0.0 11.0 0.00 0.00 0.00 57 1009.0
20260901210003 74 103 1.0 6.0 0.00 0.00 0.00 57 1009.0
20260901204502 75 155 2.0 13.0 0.00 0.00 0.00 55 1008.8
20260901203106 75 38 0.0 1.0 0.00 0.00 0.00 58 1009.0
20260901201555 74 222 0.0 1.0 0.00 0.00 0.00 62 1009.2
20260901200104 72 163 0.0 0.0 0.00 0.00 0.00 64 1009.5
20260901194558 71 115 0.0 0.0 0.00 0.00 0.00 65 1009.7
20260901193049 71 115 0.0 0.0 0.00 0.00 0.00 65 1009.8
20260901191542 69 114 0.0 3.0 0.00 0.00 0.00 66 1009.8
20260901190043 68 114 0.0 2.0 0.00 0.00 0.00 68 1009.8
20260901184536 67 38 0.0 0.0 0.00 0.00 0.00 70 1010.1
20260901183041 66 37 0.0 0.0 0.00 0.00 0.00 69 1010.1
20260901181537 66 37 0.0 0.0 0.00 0.00 0.00 65 1010.3
20260901180035 66 36 0.0 0.0 0.00 0.00 0.00 67 1010.3
20260901174537 66 37 0.0 0.0 0.00 0.00 0.00 69 1010.4
20260901173034 66 96 0.0 3.0 0.00 0.00 0.00 70 1010.4
20260901171534 66 81 0.0 1.0 0.00 0.00 0.00 69 1010.6
20260901170055 67 89 0.0 0.0 0.00 0.00 0.00 65 1010.7
20260901164528 67 109 0.0 0.0 0.00 0.00 0.00 71 1010.9
20260901163026 67 159 0.0 1.0 0.00 0.00 0.00 70 1010.8
20260901161526 67 164 0.0 0.0 0.00 0.00 0.00 68 1010.9
20260901160032 68 161 0.0 0.0 0.00 0.00 0.00 66 1010.9
20260901154522 67 180 0.0 0.0 0.00 0.00 0.00 64 1010.7
20260901153019 66 180 0.0 0.0 0.00 0.00 0.00 66 1010.8
20260901151516 66 180 0.0 0.0 0.00 0.00 0.00 61 1011.0
20260901143100 65 180 0.0 0.0 0.00 0.00 0.00 59 1011.1
20260901141557 64 179 0.0 0.0 0.00 0.00 0.00 53 1011.5
20260901140053 62 179 0.0 0.0 0.00 0.00 0.00 60 1011.5
20260901134550 61 179 0.0 0.0 0.00 0.00 0.00 64 1011.5
20260901133048 61 179 0.0 0.0 0.00 0.00 0.00 58 1011.3
20260901131546 62 179 0.0 0.0 0.00 0.00 0.00 54 1011.2
20260901130057 61 179 0.0 0.0 0.00 0.00 0.00 52 1011.6
20260901124638 61 178 0.0 0.0 0.00 0.00 0.00 52 1011.4
20260901123015 61 178 0.0 0.0 0.00 0.00 0.00 49 1011.1
20260901121549 58 187 0.0 0.0 0.00 0.00 0.00 56 1011.2
20260901120049 58 186 0.0 0.0 0.00 0.00 0.00 58 1010.9
20260901114548 59 185 0.0 0.0 0.00 0.00 0.00 55 1010.8
20260901113050 58 186 0.0 0.0 0.00 0.00 0.00 54 1010.9
20260901111545 58 186 0.0 0.0 0.00 0.00 0.00 57 1011.1
20260901110046 58 186 0.0 0.0 0.00 0.00 0.00 54 1011.3
20260901104541 59 186 0.0 0.0 0.00 0.00 0.00 52 1011.4
20260901103042 59 186 0.0 0.0 0.00 0.00 0.00 55 1011.6
20260901101544 58 183 0.0 0.0 0.00 0.00 0.00 54 1011.7
20260901100044 57 184 0.0 0.0 0.00 0.00 0.00 53 1011.6
20260901094537 58 184 0.0 0.0 0.00 0.00 0.00 55 1011.8
20260901093036 57 184 0.0 0.0 0.00 0.00 0.00 56 1011.9
20260901091537 57 184 0.0 0.0 0.00 0.00 0.00 55 1011.9
20260901090042 57 184 0.0 0.0 0.00 0.00 0.00 57 1011.8
20260901084546 56 184 0.0 0.0 0.00 0.00 0.00 55 1012.0
20260901083045 56 184 0.0 0.0 0.00 0.00 0.00 57 1012.1
20260901081532 55 184 0.0 0.0 0.00 0.00 0.00 58 1012.1
20260901080029 56 182 0.0 0.0 0.00 0.00 0.00 55 1012.1
20260901074531 56 182 0.0 0.0 0.00 0.00 0.00 54 1012.4
20260901073035 57 182 0.0 0.0 0.00 0.00 0.00 54 1012.5
20260901071525 56 182 0.0 0.0 0.00 0.00 0.00 54 1012.5
20260901070027 57 182 0.0 0.0 0.00 0.00 0.00 52 1012.5
20260901064533 57 182 0.0 0.0 0.00 0.00 0.00 52 1012.7
20260901063017 59 182 0.0 0.0 0.00 0.00 0.00 49 1012.7
20260901061516 59 182 0.0 0.0 0.00 0.00 0.00 49 1012.7
20260901060012 59 182 0.0 0.0 0.00 0.00 0.00 48 1012.7
20260901054511 60 182 0.0 0.0 0.00 0.00 0.00 49 1012.7
20260901053011 60 182 0.0 0.0 0.00 0.00 0.00 50 1012.7
20260901051511 60 182 0.0 0.0 0.00 0.00 0.00 52 1012.6
20260901050009 60 176 0.0 0.0 0.00 0.00 0.00 50 1012.5
20260901044507 61 176 0.0 0.0 0.00 0.00 0.00 49 1012.5